TimeGMT,TemperatureF,Dew PointF,Humidity,Sea Level PressureIn,VisibilityMPH,Wind Direction,Wind SpeedMPH,Gust SpeedMPH,PrecipitationIn,Events,Conditions,WindDirDegrees,DateUTC
12:00 AM,30,29,93,29.74,5,Calm,Calm,,,,Mist,,2013-03-05 00:00:00
12:00 AM,30.2,28.4,93,29.71,5.0,Calm,Calm,-,N/A,,Partly Cloudy,0,2013-03-05 00:00:00
12:30 AM,30.2,28.4,93,29.71,5.0,Variable,2.3,-,N/A,,Partly Cloudy,0,2013-03-05 00:30:00
1:00 AM,28.4,28.4,100,29.71,4.3,Variable,3.5,-,N/A,,Partly Cloudy,0,2013-03-05 01:00:00
1:30 AM,28.4,28.4,100,29.68,4.3,Variable,3.5,-,N/A,,Partly Cloudy,0,2013-03-05 01:30:00
2:00 AM,28.4,28.4,100,29.68,4.3,Variable,1.2,-,N/A,,Partly Cloudy,0,2013-03-05 02:00:00
2:30 AM,28.4,28.4,100,29.68,4.3,North,2.3,-,N/A,,Partly Cloudy,360,2013-03-05 02:30:00
3:00 AM,26.6,26.6,100,29.68,4.3,North,2.3,-,N/A,,Partly Cloudy,360,2013-03-05 03:00:00
3:30 AM,26.6,26.6,100,29.68,4.3,NNE,3.5,-,N/A,,Partly Cloudy,20,2013-03-05 03:30:00
4:00 AM,26.6,26.6,100,29.68,4.3,North,2.3,-,N/A,,Partly Cloudy,350,2013-03-05 04:00:00
4:30 AM,26.6,26.6,100,29.68,4.3,North,2.3,-,N/A,,Partly Cloudy,10,2013-03-05 04:30:00
5:00 AM,26.6,26.6,100,29.65,4.3,NNE,4.6,-,N/A,,Partly Cloudy,30,2013-03-05 05:00:00
5:30 AM,30.2,30.2,100,29.65,4.3,NE,5.8,-,N/A,,Partly Cloudy,40,2013-03-05 05:30:00
6:00 AM,27,27,100,29.68,4,NE,6.7,,,,Mist,50,2013-03-05 06:00:00
6:00 AM,28.4,28.4,100,29.65,4.3,NE,6.9,-,N/A,,Partly Cloudy,50,2013-03-05 06:00:00
6:30 AM,28.4,28.4,100,29.65,3.7,ENE,6.9,-,N/A,,Partly Cloudy,60,2013-03-05 06:30:00
7:00 AM,32.0,30.2,93,29.65,2.2,NE,5.8,-,N/A,,Partly Cloudy,40,2013-03-05 07:00:00
7:30 AM,33.8,32.0,93,29.65,1.2,NE,6.9,-,N/A,,Partly Cloudy,50,2013-03-05 07:30:00
8:00 AM,33.8,32.0,93,29.65,0.9,NE,6.9,-,N/A,,Partly Cloudy,40,2013-03-05 08:00:00
8:30 AM,35.6,35.6,100,29.65,4.3,ENE,6.9,-,N/A,,Partly Cloudy,70,2013-03-05 08:30:00
9:00 AM,37.4,37.4,100,29.65,5.0,East,6.9,-,N/A,,Partly Cloudy,90,2013-03-05 09:00:00
9:30 AM,41.0,39.2,93,29.65,5.0,East,6.9,-,N/A,,Partly Cloudy,90,2013-03-05 09:30:00
10:30 AM,44.6,39.2,81,29.65,5.0,East,9.2,-,N/A,,Partly Cloudy,90,2013-03-05 10:30:00
11:00 AM,46.4,39.2,76,29.62,5.0,East,10.4,-,N/A,,Partly Cloudy,90,2013-03-05 11:00:00
11:30 AM,46.4,39.2,76,29.62,4.3,East,10.4,-,N/A,,Partly Cloudy,80,2013-03-05 11:30:00
12:00 PM,47,36,57,29.65,4,East,11.2,,,,Mist,90,2013-03-05 12:00:00
12:00 PM,48.2,37.4,66,29.62,4.3,East,10.4,-,N/A,,Partly Cloudy,90,2013-03-05 12:00:00
12:30 PM,46.4,35.6,66,29.62,4.3,East,10.4,-,N/A,,Partly Cloudy,90,2013-03-05 12:30:00
1:00 PM,46.4,35.6,66,29.62,4.3,East,11.5,-,N/A,,Mostly Cloudy,90,2013-03-05 13:00:00
1:30 PM,46.4,35.6,66,29.62,5.0,East,11.5,-,N/A,,Mostly Cloudy,90,2013-03-05 13:30:00
2:00 PM,46.4,37.4,71,29.59,5.0,ENE,11.5,-,N/A,,Mostly Cloudy,70,2013-03-05 14:00:00
2:30 PM,46.4,39.2,76,29.59,3.1,East,12.7,-,N/A,,Scattered Clouds,80,2013-03-05 14:30:00
3:00 PM,44.6,39.2,81,29.59,-9999.0,East,13.8,-,N/A,,Scattered Clouds,90,2013-03-05 15:00:00
3:30 PM,46.4,39.2,76,29.59,-9999.0,East,11.5,-,N/A,,Mostly Cloudy,80,2013-03-05 15:30:00
4:00 PM,44.6,39.2,81,29.59,2.2,ENE,11.5,-,N/A,,Mostly Cloudy,70,2013-03-05 16:00:00
4:30 PM,42.8,39.2,87,29.59,1.6,ENE,11.5,-,N/A,,Mostly Cloudy,70,2013-03-05 16:30:00
5:00 PM,42.8,39.2,87,29.56,1.6,ENE,10.4,-,N/A,,Mostly Cloudy,60,2013-03-05 17:00:00
5:30 PM,41.0,37.4,87,29.56,1.6,ENE,10.4,-,N/A,,Scattered Clouds,70,2013-03-05 17:30:00
6:00 PM,41,38,85,29.59,2,ENE,8.9,,,,Mist,60,2013-03-05 18:00:00
6:00 PM,41.0,37.4,87,29.56,1.6,ENE,9.2,-,N/A,,Mostly Cloudy,60,2013-03-05 18:00:00
6:30 PM,41.0,39.2,93,29.56,-9999.0,East,8.1,-,N/A,,Mostly Cloudy,80,2013-03-05 18:30:00
7:00 PM,41.0,39.2,93,29.56,2.8,ENE,10.4,-,N/A,,Mostly Cloudy,70,2013-03-05 19:00:00
7:30 PM,41.0,39.2,93,29.56,2.8,East,8.1,-,N/A,,Mostly Cloudy,80,2013-03-05 19:30:00
8:00 PM,42.8,39.2,87,29.56,2.8,East,9.2,-,N/A,,Light Drizzle,80,2013-03-05 20:00:00
8:30 PM,42.8,39.2,87,29.56,2.8,East,9.2,-,N/A,,Mostly Cloudy,80,2013-03-05 20:30:00
9:00 PM,42.8,39.2,87,29.56,2.8,East,8.1,-,N/A,,Mostly Cloudy,90,2013-03-05 21:00:00
9:30 PM,42.8,39.2,87,29.56,2.5,East,10.4,-,N/A,,Mostly Cloudy,80,2013-03-05 21:30:00
10:00 PM,42.8,39.2,87,29.56,2.5,ENE,9.2,-,N/A,,Mostly Cloudy,60,2013-03-05 22:00:00
10:30 PM,42.8,39.2,87,29.56,2.5,ENE,9.2,-,N/A,,Mostly Cloudy,70,2013-03-05 22:30:00
11:00 PM,42.8,39.2,87,29.56,2.2,ENE,8.1,-,N/A,,Mostly Cloudy,70,2013-03-05 23:00:00
11:30 PM,41.0,39.2,93,29.56,2.2,NE,9.2,-,N/A,,Mostly Cloudy,50,2013-03-05 23:30:00